This is the latest recevied weather packets stored in our database for station/object W9PEM-13. If no packets are shown the sender has not sent any weather packets the latest 10 day(s).
| Time | Temp. | Humidity | Pressure | Rain* | Wind** | Luminosity | Snow |
|---|---|---|---|---|---|---|---|
| 1778015775 | 13.33° C | 34% | 977.6 hPa | 0 mm | - | 456 W/m² | - |
| 1778015613 | 13.33° C | 34% | 977.6 hPa | 0 mm | - | 456 W/m² | - |
| 1778015081 | 12.78° C | 35% | 977.6 hPa | 0 mm | - | 366 W/m² | - |
| 1778014544 | 13.33° C | 36% | 977.6 hPa | 0 mm | - | 378 W/m² | - |
| 1778014413 | 13.33° C | 36% | 977.6 hPa | 0 mm | - | 378 W/m² | - |
| 1778013857 | 12.78° C | 36% | 977.7 hPa | 0 mm | - | 416 W/m² | - |
| 1778013813 | 12.78° C | 36% | 977.7 hPa | 0 mm | - | 416 W/m² | - |
| 1778013426 | 12.78° C | 36% | 977.8 hPa | 0 mm | - | 453 W/m² | - |
| 1778013369 | 12.78° C | 36% | 977.8 hPa | 0 mm | - | 453 W/m² | - |
| 1778013213 | 12.78° C | 36% | 977.8 hPa | 0 mm | - | 453 W/m² | - |
| 1778012869 | 13.33° C | 36% | 978 hPa | 0 mm | - | 715 W/m² | - |
| 1778012671 | 13.33° C | 36% | 978 hPa | 0 mm | - | 715 W/m² | - |
| 1778012612 | 13.33° C | 36% | 978 hPa | 0 mm | - | 715 W/m² | - |
| 1778012338 | 13.33° C | 37% | 977.8 hPa | 0 mm | - | 594 W/m² | - |
| 1778012012 | 13.33° C | 37% | 977.8 hPa | 0 mm | - | 594 W/m² | - |
| 1778011479 | 13.33° C | 37% | 978 hPa | 0 mm | - | 758 W/m² | - |
| 1778011412 | 13.33° C | 37% | 978 hPa | 0 mm | - | 758 W/m² | - |
| 1778011125 | 13.33° C | 35% | 977.9 hPa | 0 mm | - | 755 W/m² | - |
| 1778010813 | 13.33° C | 35% | 977.9 hPa | 0 mm | - | 755 W/m² | - |
| 1778010475 | 13.33° C | 36% | 977.9 hPa | 0 mm | - | 631 W/m² | - |
| 1778010212 | 13.33° C | 36% | 977.9 hPa | 0 mm | - | 631 W/m² | - |
| 1778009907 | 13.33° C | 39% | 977.9 hPa | 0 mm | - | 733 W/m² | - |
| 1778009838 | 13.33° C | 39% | 977.9 hPa | 0 mm | - | 733 W/m² | - |
| 1778009687 | 13.33° C | 39% | 977.9 hPa | 0 mm | - | 733 W/m² | - |
| 1778009612 | 13.33° C | 39% | 977.9 hPa | 0 mm | - | 733 W/m² | - |
* Rain latest hour (hover to see other rain measurements)
** Current wind speed in m/s (hover to see current wind gust speed)